Location: Eaton Estates
(41.3089°N, 82.0057°W)
Time: 07:55:15
(UTC+00:00)

Cosmos 405 - Pass Details

Date: 17 June 2021
Orbit: 446 x 459 km, 81.3° (Epoch: 27 July)

Event Time Altitude Azimuth Distance (km) Brightness Sun altitude
Rises 03:10:49 0° 358° (N) 2,459 7.7 -17.8°
Reaches altitude 10° 03:13:01 10° 8° (N) 1,581 6.4 -18.0°
Maximum altitude 03:16:14 36° 76° (ENE) 724 3.7 -18.4°
Enters shadow 03:16:26 36° 86° (E) 730 3.7 -18.4°
